| time (UTC) | temp F | wind direction | speed MPH | gust MPH | rain 1hr in | rain 24hr in | rain mn in | humidity % | barometer mb |
| 20260509111157 | 57 | 239 | 0.0 | 1.0 | 0.00 | 0.00 | 0.00 | 95 | 1014.9 |
| 20260509110654 | 57 | 203 | 0.0 | 0.0 | 0.00 | 0.00 | 0.00 | 95 | 1015.2 |
| 20260509110151 | 56 | 214 | 0.0 | 0.0 | 0.00 | 0.00 | 0.00 | 95 | 1015.3 |
| 20260509105649 | 56 | 289 | 2.0 | 2.0 | 0.00 | 0.00 | 0.00 | 95 | 1015.2 |
| 20260509105146 | 56 | 270 | 1.0 | 1.0 | 0.00 | 0.00 | 0.00 | 95 | 1015.1 |
| 20260509104643 | 56 | 307 | 1.0 | 2.0 | 0.00 | 0.00 | 0.00 | 95 | 1015.2 |
| 20260509104140 | 56 | 284 | 1.0 | 1.0 | 0.00 | 0.00 | 0.00 | 95 | 1015.1 |
| 20260509103638 | 56 | 294 | 2.0 | 2.0 | 0.00 | 0.00 | 0.00 | 96 | 1015.0 |
| 20260509103136 | 56 | 290 | 0.0 | 1.0 | 0.00 | 0.00 | 0.00 | 96 | 1015.1 |
| 20260509102633 | 56 | 289 | 1.0 | 2.0 | 0.00 | 0.00 | 0.00 | 96 | 1015.1 |
| 20260509102130 | 56 | 282 | 1.0 | 2.0 | 0.00 | 0.00 | 0.00 | 96 | 1014.9 |
| 20260509101626 | 55 | 291 | 2.0 | 2.0 | 0.00 | 0.00 | 0.00 | 95 | 1014.9 |
| 20260509101123 | 55 | 314 | 1.0 | 2.0 | 0.00 | 0.00 | 0.00 | 95 | 1015.1 |
| 20260509100620 | 55 | 292 | 2.0 | 4.0 | 0.00 | 0.00 | 0.00 | 95 | 1015.2 |
| 20260509100118 | 55 | 300 | 2.0 | 3.0 | 0.00 | 0.00 | 0.00 | 95 | 1015.0 |
| 20260509095614 | 55 | 304 | 2.0 | 2.0 | 0.00 | 0.00 | 0.00 | 94 | 1014.9 |
| 20260509095112 | 56 | 269 | 1.0 | 1.0 | 0.00 | 0.00 | 0.00 | 94 | 1014.9 |
| 20260509094607 | 56 | 265 | 1.0 | 2.0 | 0.00 | 0.00 | 0.00 | 94 | 1014.9 |
| 20260509094105 | 56 | 277 | 1.0 | 2.0 | 0.00 | 0.00 | 0.00 | 94 | 1014.8 |
| 20260509093603 | 56 | 337 | 0.0 | 1.0 | 0.00 | 0.00 | 0.00 | 93 | 1014.8 |
| 20260509093100 | 56 | 244 | 0.0 | 1.0 | 0.00 | 0.00 | 0.00 | 93 | 1014.9 |
| 20260509092558 | 57 | 265 | 1.0 | 2.0 | 0.00 | 0.00 | 0.00 | 93 | 1014.7 |
| 20260509092056 | 57 | 289 | 1.0 | 1.0 | 0.00 | 0.00 | 0.00 | 93 | 1015.2 |
| 20260509091554 | 57 | 205 | 0.0 | 1.0 | 0.00 | 0.00 | 0.00 | 93 | 1015.4 |
| 20260509091050 | 57 | 276 | 1.0 | 1.0 | 0.00 | 0.00 | 0.00 | 93 | 1015.0 |
| 20260509090547 | 57 | 229 | 2.0 | 3.0 | 0.00 | 0.00 | 0.00 | 94 | 1015.0 |
| 20260509090045 | 57 | 160 | 0.0 | 1.0 | 0.00 | 0.00 | 0.00 | 94 | 1015.1 |
| 20260509085542 | 57 | 197 | 2.0 | 4.0 | 0.00 | 0.00 | 0.00 | 95 | 1015.1 |
| 20260509085038 | 56 | 195 | 3.0 | 3.0 | 0.00 | 0.00 | 0.00 | 96 | 1015.3 |
| 20260509084535 | 56 | 183 | 0.0 | 2.0 | 0.00 | 0.00 | 0.00 | 96 | 1015.3 |
| 20260509084032 | 56 | 299 | 1.0 | 3.0 | 0.00 | 0.00 | 0.00 | 96 | 1015.7 |
| 20260509083530 | 55 | 269 | 1.0 | 2.0 | 0.00 | 0.00 | 0.00 | 97 | 1015.7 |
| 20260509083026 | 55 | 311 | 1.0 | 2.0 | 0.00 | 0.00 | 0.00 | 97 | 1015.6 |
| 20260509082524 | 55 | 285 | 2.0 | 2.0 | 0.00 | 0.00 | 0.00 | 97 | 1015.4 |
| 20260509082021 | 55 | 279 | 1.0 | 1.0 | 0.00 | 0.00 | 0.00 | 97 | 1015.2 |
| 20260509081518 | 55 | 286 | 1.0 | 2.0 | 0.00 | 0.00 | 0.00 | 97 | 1015.2 |
| 20260509081015 | 55 | 297 | 1.0 | 2.0 | 0.00 | 0.00 | 0.00 | 97 | 1015.1 |
| 20260509080513 | 55 | 281 | 1.0 | 2.0 | 0.00 | 0.00 | 0.00 | 97 | 1015.2 |
| 20260509080011 | 54 | 295 | 1.0 | 2.0 | 0.00 | 0.00 | 0.00 | 98 | 1015.4 |
| 20260509075508 | 54 | 300 | 2.0 | 2.0 | 0.00 | 0.00 | 0.00 | 98 | 1015.4 |
| 20260509075005 | 54 | 294 | 2.0 | 2.0 | 0.00 | 0.00 | 0.00 | 97 | 1015.3 |
| 20260509074502 | 54 | 275 | 1.0 | 2.0 | 0.00 | 0.00 | 0.00 | 97 | 1015.2 |
| 20260509073959 | 54 | 277 | 1.0 | 2.0 | 0.00 | 0.00 | 0.00 | 97 | 1015.2 |
| 20260509073455 | 54 | 301 | 2.0 | 2.0 | 0.00 | 0.00 | 0.00 | 98 | 1015.1 |
| 20260509072951 | 54 | 299 | 1.0 | 2.0 | 0.00 | 0.00 | 0.00 | 97 | 1015.0 |
| 20260509072449 | 54 | 301 | 1.0 | 3.0 | 0.00 | 0.00 | 0.00 | 98 | 1014.9 |
| 20260509071945 | 54 | 296 | 2.0 | 2.0 | 0.00 | 0.00 | 0.00 | 97 | 1014.7 |
| 20260509071441 | 54 | 335 | 1.0 | 2.0 | 0.00 | 0.00 | 0.00 | 97 | 1014.7 |
| 20260509070940 | 54 | 304 | 1.0 | 2.0 | 0.00 | 0.00 | 0.00 | 97 | 1014.7 |
| 20260509070436 | 54 | 283 | 1.0 | 1.0 | 0.00 | 0.00 | 0.00 | 97 | 1014.8 |
| 20260509065932 | 54 | 256 | 1.0 | 2.0 | 0.00 | 0.00 | 0.00 | 97 | 1015.2 |
| 20260509065428 | 54 | 300 | 1.0 | 2.0 | 0.00 | 0.00 | 0.00 | 97 | 1015.0 |
| 20260509064924 | 54 | 317 | 1.0 | 3.0 | 0.00 | 0.00 | 0.00 | 98 | 1015.3 |
| 20260509064422 | 54 | 298 | 1.0 | 2.0 | 0.00 | 0.00 | 0.00 | 97 | 1015.5 |
| 20260509063920 | 53 | 291 | 1.0 | 2.0 | 0.00 | 0.00 | 0.00 | 97 | 1015.4 |
| 20260509063415 | 54 | 299 | 2.0 | 2.0 | 0.00 | 0.00 | 0.00 | 97 | 1015.4 |
| 20260509062907 | 54 | 290 | 1.0 | 2.0 | 0.00 | 0.00 | 0.00 | 97 | 1015.2 |
| 20260509062405 | 53 | 291 | 2.0 | 3.0 | 0.00 | 0.00 | 0.00 | 97 | 1015.5 |
| 20260509061902 | 53 | 298 | 2.0 | 2.0 | 0.00 | 0.00 | 0.00 | 97 | 1015.8 |
| 20260509061400 | 53 | 303 | 2.0 | 3.0 | 0.00 | 0.00 | 0.00 | 97 | 1015.6 |
| 20260509060856 | 53 | 293 | 2.0 | 3.0 | 0.00 | 0.00 | 0.00 | 96 | 1015.8 |
| 20260509060353 | 53 | 303 | 2.0 | 3.0 | 0.00 | 0.00 | 0.00 | 96 | 1015.6 |
| 20260509055848 | 53 | 301 | 2.0 | 2.0 | 0.00 | 0.00 | 0.00 | 96 | 1015.8 |
| 20260509055343 | 53 | 299 | 2.0 | 3.0 | 0.00 | 0.00 | 0.00 | 96 | 1015.9 |
| 20260509054841 | 53 | 297 | 2.0 | 4.0 | 0.00 | 0.00 | 0.00 | 96 | 1015.8 |
| 20260509054337 | 53 | 296 | 2.0 | 3.0 | 0.00 | 0.00 | 0.00 | 96 | 1016.0 |
| 20260509053836 | 53 | 290 | 2.0 | 3.0 | 0.00 | 0.00 | 0.00 | 96 | 1016.2 |
| 20260509053333 | 53 | 293 | 3.0 | 3.0 | 0.00 | 0.00 | 0.00 | 95 | 1016.2 |
| 20260509052831 | 53 | 299 | 3.0 | 3.0 | 0.00 | 0.00 | 0.00 | 95 | 1016.1 |
| 20260509052328 | 53 | 294 | 3.0 | 3.0 | 0.00 | 0.00 | 0.00 | 94 | 1016.3 |
| 20260509051826 | 53 | 287 | 2.0 | 3.0 | 0.00 | 0.00 | 0.00 | 94 | 1016.1 |
| 20260509051324 | 53 | 301 | 2.0 | 3.0 | 0.00 | 0.00 | 0.00 | 93 | 1016.1 |
| 20260509050820 | 53 | 295 | 2.0 | 3.0 | 0.00 | 0.00 | 0.00 | 93 | 1016.3 |
| 20260509050317 | 54 | 292 | 3.0 | 3.0 | 0.00 | 0.00 | 0.00 | 93 | 1016.3 |
| 20260509045814 | 54 | 300 | 2.0 | 3.0 | 0.00 | 0.00 | 0.00 | 93 | 1016.2 |
| 20260509045310 | 54 | 285 | 2.0 | 3.0 | 0.00 | 0.00 | 0.00 | 93 | 1016.2 |
| 20260509044808 | 54 | 309 | 2.0 | 3.0 | 0.00 | 0.00 | 0.00 | 92 | 1016.2 |
| 20260509044305 | 54 | 297 | 2.0 | 3.0 | 0.00 | 0.00 | 0.00 | 92 | 1016.2 |
| 20260509043802 | 55 | 304 | 3.0 | 3.0 | 0.00 | 0.00 | 0.00 | 91 | 1016.3 |
| 20260509043258 | 55 | 298 | 3.0 | 4.0 | 0.00 | 0.00 | 0.00 | 91 | 1016.5 |
| 20260509042754 | 55 | 286 | 2.0 | 3.0 | 0.00 | 0.00 | 0.00 | 91 | 1016.6 |
| 20260509042250 | 55 | 299 | 2.0 | 2.0 | 0.00 | 0.00 | 0.00 | 91 | 1016.6 |
| 20260509041747 | 55 | 298 | 2.0 | 4.0 | 0.00 | 0.00 | 0.00 | 90 | 1016.6 |
| 20260509041244 | 56 | 304 | 2.0 | 3.0 | 0.00 | 0.00 | 0.00 | 90 | 1016.6 |
| 20260509040743 | 56 | 300 | 2.0 | 3.0 | 0.00 | 0.00 | 0.00 | 89 | 1016.7 |
| 20260509040239 | 56 | 307 | 2.0 | 2.0 | 0.00 | 0.00 | 0.00 | 89 | 1016.7 |
| 20260509035736 | 56 | 292 | 2.0 | 2.0 | 0.00 | 0.00 | 0.00 | 89 | 1016.8 |
| 20260509035233 | 56 | 294 | 2.0 | 3.0 | 0.00 | 0.00 | 0.00 | 88 | 1016.9 |
| 20260509034730 | 56 | 307 | 2.0 | 4.0 | 0.00 | 0.00 | 0.00 | 88 | 1016.6 |
| 20260509034228 | 57 | 281 | 2.0 | 3.0 | 0.00 | 0.00 | 0.00 | 88 | 1016.7 |
| 20260509033724 | 56 | 304 | 2.0 | 4.0 | 0.00 | 0.00 | 0.00 | 87 | 1016.5 |
| 20260509033221 | 57 | 290 | 2.0 | 4.0 | 0.00 | 0.00 | 0.00 | 86 | 1016.7 |
| 20260509032719 | 57 | 287 | 2.0 | 3.0 | 0.00 | 0.00 | 0.00 | 87 | 1016.8 |
| 20260509032215 | 57 | 276 | 2.0 | 4.0 | 0.00 | 0.00 | 0.00 | 86 | 1016.7 |
| 20260509031713 | 58 | 311 | 2.0 | 2.0 | 0.00 | 0.00 | 0.00 | 86 | 1016.7 |
| 20260509031210 | 58 | 269 | 2.0 | 2.0 | 0.00 | 0.00 | 0.00 | 85 | 1016.8 |
| 20260509030708 | 59 | 214 | 1.0 | 2.0 | 0.00 | 0.00 | 0.00 | 86 | 1016.8 |
| 20260509030205 | 58 | 160 | 1.0 | 3.0 | 0.00 | 0.00 | 0.00 | 85 | 1016.7 |
| 20260509025701 | 59 | 270 | 1.0 | 3.0 | 0.00 | 0.00 | 0.00 | 84 | 1016.9 |
| 20260509025158 | 59 | 279 | 1.0 | 3.0 | 0.00 | 0.00 | 0.00 | 84 | 1016.9 |
| 20260509024653 | 59 | 289 | 2.0 | 2.0 | 0.00 | 0.00 | 0.00 | 84 | 1016.9 |
| 20260509024149 | 58 | 306 | 2.0 | 3.0 | 0.00 | 0.00 | 0.00 | 82 | 1016.8 |
| 20260509023647 | 59 | 275 | 2.0 | 2.0 | 0.00 | 0.00 | 0.00 | 82 | 1017.1 |
| 20260509023144 | 59 | 296 | 2.0 | 3.0 | 0.00 | 0.00 | 0.00 | 83 | 1017.1 |
| 20260509022640 | 59 | 281 | 2.0 | 3.0 | 0.00 | 0.00 | 0.00 | 82 | 1017.1 |
| 20260509022138 | 59 | 297 | 2.0 | 4.0 | 0.00 | 0.00 | 0.00 | 81 | 1016.9 |
| 20260509021634 | 59 | 286 | 3.0 | 3.0 | 0.00 | 0.00 | 0.00 | 80 | 1016.8 |
| 20260509021132 | 60 | 294 | 2.0 | 3.0 | 0.00 | 0.00 | 0.00 | 79 | 1016.8 |
| 20260509020630 | 60 | 286 | 2.0 | 3.0 | 0.00 | 0.00 | 0.00 | 81 | 1016.7 |
| 20260509020126 | 60 | 291 | 2.0 | 3.0 | 0.00 | 0.00 | 0.00 | 79 | 1016.6 |
| 20260509015626 | 60 | 291 | 2.0 | 3.0 | 0.00 | 0.00 | 0.00 | 79 | 1016.6 |
| 20260509015122 | 60 | 284 | 2.0 | 2.0 | 0.00 | 0.00 | 0.00 | 79 | 1016.7 |
| 20260509014619 | 61 | 298 | 2.0 | 3.0 | 0.00 | 0.00 | 0.00 | 78 | 1016.4 |
| 20260509014115 | 61 | 278 | 2.0 | 3.0 | 0.00 | 0.00 | 0.00 | 77 | 1016.5 |
| 20260509013613 | 61 | 302 | 2.0 | 3.0 | 0.00 | 0.00 | 0.00 | 76 | 1016.6 |
| 20260509013108 | 62 | 287 | 2.0 | 2.0 | 0.00 | 0.00 | 0.00 | 76 | 1016.2 |
| 20260509012605 | 62 | 264 | 1.0 | 3.0 | 0.00 | 0.00 | 0.00 | 75 | 1016.4 |
| 20260509012102 | 62 | 288 | 1.0 | 3.0 | 0.00 | 0.00 | 0.00 | 74 | 1016.5 |
| 20260509011600 | 63 | 297 | 1.0 | 2.0 | 0.00 | 0.00 | 0.00 | 73 | 1016.5 |
| 20260509011056 | 64 | 230 | 1.0 | 2.0 | 0.00 | 0.00 | 0.00 | 71 | 1016.6 |
| 20260509010554 | 63 | 184 | 0.0 | 2.0 | 0.00 | 0.00 | 0.00 | 71 | 1016.7 |
| 20260509010051 | 64 | 273 | 1.0 | 2.0 | 0.00 | 0.00 | 0.00 | 70 | 1016.4 |
| 20260509005549 | 64 | 274 | 2.0 | 3.0 | 0.00 | 0.00 | 0.00 | 70 | 1016.7 |
| 20260509005044 | 65 | 168 | 0.0 | 1.0 | 0.00 | 0.00 | 0.00 | 68 | 1016.6 |
| 20260509004541 | 65 | 192 | 1.0 | 2.0 | 0.00 | 0.00 | 0.00 | 67 | 1016.5 |
| 20260509004038 | 64 | 169 | 4.0 | 6.0 | 0.00 | 0.00 | 0.00 | 71 | 1016.6 |
| 20260509003537 | 64 | 287 | 2.0 | 2.0 | 0.00 | 0.00 | 0.00 | 68 | 1016.7 |
| 20260509003033 | 65 | 167 | 0.0 | 2.0 | 0.00 | 0.00 | 0.00 | 65 | 1016.4 |
| 20260509002531 | 66 | 306 | 1.0 | 3.0 | 0.00 | 0.00 | 0.00 | 63 | 1016.6 |
| 20260509002028 | 67 | 217 | 1.0 | 2.0 | 0.00 | 0.00 | 0.00 | 64 | 1016.6 |
| 20260509001525 | 69 | 209 | 2.0 | 2.0 | 0.00 | 0.00 | 0.00 | 60 | 1016.4 |
| 20260509001021 | 69 | 194 | 5.0 | 8.0 | 0.00 | 0.00 | 0.00 | 63 | 1016.7 |
| 20260509000520 | 69 | 202 | 6.0 | 7.0 | 0.00 | 0.00 | 0.00 | 61 | 1016.6 |
| 20260509000015 | 67 | 189 | 6.0 | 8.0 | 0.00 | 0.00 | 0.00 | 60 | 1016.5 |
| 20260508235514 | 68 | 258 | 1.0 | 2.0 | 0.00 | 0.00 | 0.00 | 64 | 1016.5 |
| 20260508235009 | 69 | 212 | 2.0 | 6.0 | 0.00 | 0.00 | 0.00 | 58 | 1016.4 |
| 20260508234507 | 69 | 203 | 1.0 | 6.0 | 0.00 | 0.00 | 0.00 | 60 | 1016.5 |
| 20260508234004 | 69 | 202 | 0.0 | 3.0 | 0.00 | 0.00 | 0.00 | 59 | 1016.4 |
| 20260508233503 | 70 | 181 | 4.0 | 7.0 | 0.00 | 0.00 | 0.00 | 60 | 1016.4 |
| 20260508233000 | 70 | 184 | 4.0 | 7.0 | 0.00 | 0.00 | 0.00 | 57 | 1016.4 |
| 20260508232457 | 70 | 180 | 1.0 | 3.0 | 0.00 | 0.00 | 0.00 | 56 | 1016.3 |
| 20260508231954 | 70 | 178 | 1.0 | 2.0 | 0.00 | 0.00 | 0.00 | 54 | 1016.5 |
| 20260508231451 | 70 | 186 | 1.0 | 6.0 | 0.00 | 0.00 | 0.00 | 54 | 1016.4 |
| 20260508230948 | 71 | 199 | 3.0 | 7.0 | 0.00 | 0.00 | 0.00 | 54 | 1016.6 |
| 20260508230445 | 71 | 198 | 4.0 | 4.0 | 0.00 | 0.00 | 0.00 | 52 | 1016.5 |
| 20260508225942 | 71 | 186 | 3.0 | 6.0 | 0.00 | 0.00 | 0.00 | 53 | 1016.6 |
| 20260508225439 | 71 | 185 | 3.0 | 3.0 | 0.00 | 0.00 | 0.00 | 52 | 1016.6 |
| 20260508224936 | 71 | 182 | 4.0 | 8.0 | 0.00 | 0.00 | 0.00 | 50 | 1016.6 |
| 20260508224433 | 72 | 169 | 6.0 | 8.0 | 0.00 | 0.00 | 0.00 | 53 | 1016.6 |
| 20260508223930 | 72 | 178 | 6.0 | 8.0 | 0.00 | 0.00 | 0.00 | 53 | 1016.7 |
| 20260508223429 | 71 | 174 | 5.0 | 7.0 | 0.00 | 0.00 | 0.00 | 54 | 1016.8 |
| 20260508222925 | 71 | 201 | 1.0 | 6.0 | 0.00 | 0.00 | 0.00 | 55 | 1016.7 |
| 20260508222422 | 72 | 173 | 5.0 | 7.0 | 0.00 | 0.00 | 0.00 | 53 | 1016.7 |
| 20260508221919 | 71 | 192 | 6.0 | 7.0 | 0.00 | 0.00 | 0.00 | 52 | 1016.9 |
| 20260508221415 | 71 | 182 | 3.0 | 4.0 | 0.00 | 0.00 | 0.00 | 49 | 1016.7 |
| 20260508220911 | 71 | 189 | 4.0 | 6.0 | 0.00 | 0.00 | 0.00 | 49 | 1016.7 |
| 20260508220408 | 73 | 180 | 0.0 | 1.0 | 0.00 | 0.00 | 0.00 | 51 | 1016.6 |
| 20260508215904 | 73 | 268 | 1.0 | 1.0 | 0.00 | 0.00 | 0.00 | 48 | 1016.7 |
| 20260508215401 | 72 | 188 | 0.0 | 2.0 | 0.00 | 0.00 | 0.00 | 52 | 1016.5 |
| 20260508214858 | 73 | 192 | 0.0 | 1.0 | 0.00 | 0.00 | 0.00 | 46 | 1016.6 |
| 20260508214356 | 73 | 188 | 2.0 | 2.0 | 0.00 | 0.00 | 0.00 | 45 | 1016.5 |
| 20260508213852 | 72 | 244 | 1.0 | 2.0 | 0.00 | 0.00 | 0.00 | 49 | 1016.5 |
| 20260508213349 | 72 | 183 | 0.0 | 2.0 | 0.00 | 0.00 | 0.00 | 47 | 1016.6 |
| 20260508212844 | 73 | 187 | 1.0 | 2.0 | 0.00 | 0.00 | 0.00 | 48 | 1016.5 |
| 20260508212341 | 72 | 283 | 1.0 | 3.0 | 0.00 | 0.00 | 0.00 | 49 | 1016.5 |
| 20260508211837 | 72 | 188 | 2.0 | 3.0 | 0.00 | 0.00 | 0.00 | 49 | 1016.7 |
| 20260508211333 | 71 | 196 | 3.0 | 6.0 | 0.00 | 0.00 | 0.00 | 44 | 1016.8 |
| 20260508210831 | 72 | 182 | 1.0 | 2.0 | 0.00 | 0.00 | 0.00 | 43 | 1016.8 |
| 20260508210327 | 72 | 168 | 1.0 | 4.0 | 0.00 | 0.00 | 0.00 | 44 | 1016.8 |
| 20260508205824 | 72 | 195 | 3.0 | 4.0 | 0.00 | 0.00 | 0.00 | 43 | 1017.0 |
| 20260508205320 | 74 | 195 | 4.0 | 4.0 | 0.00 | 0.00 | 0.00 | 40 | 1016.9 |
| 20260508204816 | 73 | 178 | 1.0 | 4.0 | 0.00 | 0.00 | 0.00 | 38 | 1017.3 |
| 20260508204313 | 73 | 170 | 2.0 | 3.0 | 0.00 | 0.00 | 0.00 | 39 | 1017.2 |
| 20260508203809 | 73 | 182 | 4.0 | 4.0 | 0.00 | 0.00 | 0.00 | 40 | 1017.2 |
| 20260508203305 | 74 | 197 | 2.0 | 3.0 | 0.00 | 0.00 | 0.00 | 38 | 1017.1 |
| 20260508202801 | 72 | 158 | 1.0 | 2.0 | 0.00 | 0.00 | 0.00 | 44 | 1017.1 |
| 20260508202259 | 72 | 193 | 1.0 | 2.0 | 0.00 | 0.00 | 0.00 | 38 | 1017.2 |
| 20260508201756 | 73 | 164 | 2.0 | 3.0 | 0.00 | 0.00 | 0.00 | 39 | 1017.2 |
| 20260508201252 | 73 | 181 | 0.0 | 2.0 | 0.00 | 0.00 | 0.00 | 39 | 1017.0 |
| 20260508200749 | 72 | 124 | 1.0 | 1.0 | 0.00 | 0.00 | 0.00 | 41 | 1017.5 |
| 20260508200245 | 74 | 134 | 0.0 | 0.0 | 0.00 | 0.00 | 0.00 | 38 | 1017.3 |
| 20260508195741 | 75 | 168 | 0.0 | 2.0 | 0.00 | 0.00 | 0.00 | 38 | 1017.3 |
| 20260508195238 | 74 | 170 | 1.0 | 2.0 | 0.00 | 0.00 | 0.00 | 37 | 1017.5 |
| 20260508194735 | 75 | 206 | 2.0 | 2.0 | 0.00 | 0.00 | 0.00 | 37 | 1017.4 |
| 20260508194232 | 74 | 204 | 0.0 | 2.0 | 0.00 | 0.00 | 0.00 | 35 | 1017.8 |
| 20260508193729 | 74 | 154 | 1.0 | 1.0 | 0.00 | 0.00 | 0.00 | 39 | 1017.9 |
| 20260508193225 | 75 | 166 | 1.0 | 2.0 | 0.00 | 0.00 | 0.00 | 37 | 1017.9 |
| 20260508192722 | 74 | 157 | 0.0 | 2.0 | 0.00 | 0.00 | 0.00 | 38 | 1017.7 |
| 20260508192219 | 73 | 135 | 1.0 | 2.0 | 0.00 | 0.00 | 0.00 | 39 | 1018.0 |
| 20260508191716 | 74 | 198 | 1.0 | 2.0 | 0.00 | 0.00 | 0.00 | 37 | 1018.1 |
| 20260508191213 | 73 | 160 | 0.0 | 1.0 | 0.00 | 0.00 | 0.00 | 38 | 1018.1 |
| 20260508190710 | 72 | 137 | 0.0 | 0.0 | 0.00 | 0.00 | 0.00 | 40 | 1018.4 |
| 20260508190206 | 71 | 153 | 0.0 | 1.0 | 0.00 | 0.00 | 0.00 | 39 | 1018.4 |
| 20260508185703 | 70 | 97 | 1.0 | 2.0 | 0.00 | 0.00 | 0.00 | 44 | 1018.0 |
| 20260508185200 | 72 | 128 | 1.0 | 2.0 | 0.00 | 0.00 | 0.00 | 38 | 1018.2 |
| 20260508184658 | 74 | 153 | 0.0 | 1.0 | 0.00 | 0.00 | 0.00 | 39 | 1018.7 |
| 20260508184155 | 73 | 192 | 1.0 | 2.0 | 0.00 | 0.00 | 0.00 | 38 | 1018.7 |
| 20260508183652 | 72 | 187 | 1.0 | 1.0 | 0.00 | 0.00 | 0.00 | 40 | 1019.0 |
| 20260508183148 | 71 | 146 | 0.0 | 1.0 | 0.00 | 0.00 | 0.00 | 40 | 1019.0 |
| 20260508182644 | 71 | 143 | 0.0 | 1.0 | 0.00 | 0.00 | 0.00 | 39 | 1019.1 |
| 20260508182141 | 71 | 152 | 1.0 | 3.0 | 0.00 | 0.00 | 0.00 | 42 | 1019.2 |
| 20260508181636 | 72 | 176 | 4.0 | 4.0 | 0.00 | 0.00 | 0.00 | 43 | 1019.2 |
| 20260508181134 | 73 | 170 | 0.0 | 1.0 | 0.00 | 0.00 | 0.00 | 41 | 1019.3 |
| 20260508180630 | 71 | 123 | 1.0 | 1.0 | 0.00 | 0.00 | 0.00 | 38 | 1019.4 |
| 20260508180127 | 73 | 164 | 0.0 | 1.0 | 0.00 | 0.00 | 0.00 | 41 | 1019.2 |
| 20260508175623 | 72 | 160 | 0.0 | 1.0 | 0.00 | 0.00 | 0.00 | 41 | 1019.3 |
| 20260508175120 | 71 | 135 | 0.0 | 1.0 | 0.00 | 0.00 | 0.00 | 42 | 1019.4 |
| 20260508174618 | 70 | 138 | 0.0 | 2.0 | 0.00 | 0.00 | 0.00 | 41 | 1019.5 |
| 20260508174115 | 72 | 178 | 2.0 | 2.0 | 0.00 | 0.00 | 0.00 | 39 | 1019.7 |
| 20260508173612 | 72 | 172 | 1.0 | 1.0 | 0.00 | 0.00 | 0.00 | 42 | 1019.8 |
| 20260508173108 | 71 | 166 | 0.0 | 2.0 | 0.00 | 0.00 | 0.00 | 41 | 1019.6 |
| 20260508172605 | 71 | 166 | 0.0 | 2.0 | 0.00 | 0.00 | 0.00 | 42 | 1019.8 |
| 20260508172101 | 70 | 170 | 1.0 | 2.0 | 0.00 | 0.00 | 0.00 | 46 | 1019.9 |
| 20260508171558 | 69 | 144 | 0.0 | 0.0 | 0.00 | 0.00 | 0.00 | 49 | 1020.0 |
| 20260508171054 | 68 | 127 | 0.0 | 0.0 | 0.00 | 0.00 | 0.00 | 46 | 1020.0 |
| 20260508170552 | 68 | 220 | 0.0 | 1.0 | 0.00 | 0.00 | 0.00 | 46 | 1020.3 |
| 20260508170049 | 66 | 108 | 1.0 | 3.0 | 0.00 | 0.00 | 0.00 | 47 | 1020.0 |
| 20260508165546 | 67 | 106 | 1.0 | 1.0 | 0.00 | 0.00 | 0.00 | 46 | 1019.9 |
| 20260508165043 | 70 | 184 | 0.0 | 1.0 | 0.00 | 0.00 | 0.00 | 47 | 1020.4 |
| 20260508164539 | 67 | 130 | 0.0 | 1.0 | 0.00 | 0.00 | 0.00 | 47 | 1020.3 |
| 20260508164036 | 66 | 61 | 1.0 | 2.0 | 0.00 | 0.00 | 0.00 | 46 | 1020.9 |
| 20260508163534 | 67 | 131 | 0.0 | 0.0 | 0.00 | 0.00 | 0.00 | 50 | 1020.7 |
| 20260508163030 | 67 | 135 | 0.0 | 2.0 | 0.00 | 0.00 | 0.00 | 49 | 1020.8 |
| 20260508162527 | 69 | 87 | 0.0 | 1.0 | 0.00 | 0.00 | 0.00 | 45 | 1021.0 |
| 20260508162025 | 70 | 196 | 1.0 | 1.0 | 0.00 | 0.00 | 0.00 | 43 | 1020.8 |
| 20260508161521 | 70 | 144 | 0.0 | 0.0 | 0.00 | 0.00 | 0.00 | 48 | 1021.1 |
| 20260508161018 | 69 | 157 | 0.0 | 0.0 | 0.00 | 0.00 | 0.00 | 49 | 1020.8 |
| 20260508160517 | 68 | 177 | 1.0 | 3.0 | 0.00 | 0.00 | 0.00 | 49 | 1021.3 |
| 20260508160014 | 68 | 160 | 1.0 | 2.0 | 0.00 | 0.00 | 0.00 | 50 | 1021.5 |
| 20260508155510 | 67 | 146 | 1.0 | 1.0 | 0.00 | 0.00 | 0.00 | 51 | 1021.3 |
| 20260508155008 | 65 | 146 | 0.0 | 2.0 | 0.00 | 0.00 | 0.00 | 52 | 1021.4 |
| 20260508154505 | 64 | 69 | 2.0 | 2.0 | 0.00 | 0.00 | 0.00 | 54 | 1021.3 |
| 20260508154001 | 65 | 61 | 2.0 | 2.0 | 0.00 | 0.00 | 0.00 | 52 | 1021.3 |
| 20260508153458 | 66 | 130 | 1.0 | 1.0 | 0.00 | 0.00 | 0.00 | 52 | 1021.3 |
| 20260508152954 | 66 | 94 | 1.0 | 2.0 | 0.00 | 0.00 | 0.00 | 52 | 1021.5 |
| 20260508152451 | 67 | 139 | 0.0 | 1.0 | 0.00 | 0.00 | 0.00 | 53 | 1021.5 |
| 20260508151947 | 65 | 62 | 1.0 | 2.0 | 0.00 | 0.00 | 0.00 | 54 | 1021.6 |
| 20260508151444 | 68 | 158 | 0.0 | 0.0 | 0.00 | 0.00 | 0.00 | 56 | 1021.8 |
| 20260508150941 | 67 | 131 | 0.0 | 1.0 | 0.00 | 0.00 | 0.00 | 56 | 1021.7 |
| 20260508150437 | 64 | 107 | 0.0 | 1.0 | 0.00 | 0.00 | 0.00 | 59 | 1021.6 |
| 20260508145933 | 63 | 78 | 0.0 | 1.0 | 0.00 | 0.00 | 0.00 | 61 | 1021.5 |
| 20260508145430 | 63 | 51 | 1.0 | 1.0 | 0.00 | 0.00 | 0.00 | 62 | 1021.7 |
| 20260508144927 | 62 | 107 | 1.0 | 2.0 | 0.00 | 0.00 | 0.00 | 65 | 1021.7 |
| 20260508144425 | 61 | 63 | 2.0 | 2.0 | 0.00 | 0.00 | 0.00 | 65 | 1021.9 |
| 20260508143922 | 61 | 102 | 1.0 | 2.0 | 0.00 | 0.00 | 0.00 | 64 | 1021.9 |
| 20260508143419 | 60 | 81 | 2.0 | 3.0 | 0.00 | 0.00 | 0.00 | 65 | 1021.8 |
| 20260508142915 | 61 | 68 | 2.0 | 3.0 | 0.00 | 0.00 | 0.00 | 65 | 1021.8 |
| 20260508142413 | 61 | 147 | 1.0 | 2.0 | 0.00 | 0.00 | 0.00 | 62 | 1021.7 |
| 20260508141909 | 61 | 113 | 0.0 | 2.0 | 0.00 | 0.00 | 0.00 | 63 | 1022.0 |
| 20260508141406 | 61 | 62 | 1.0 | 2.0 | 0.00 | 0.00 | 0.00 | 61 | 1022.0 |
| 20260508140904 | 60 | 109 | 2.0 | 2.0 | 0.00 | 0.00 | 0.00 | 63 | 1022.1 |
| 20260508140400 | 60 | 91 | 2.0 | 3.0 | 0.00 | 0.00 | 0.00 | 64 | 1022.0 |
| 20260508135856 | 60 | 106 | 1.0 | 2.0 | 0.00 | 0.00 | 0.00 | 63 | 1022.0 |
| 20260508135352 | 59 | 64 | 2.0 | 4.0 | 0.00 | 0.00 | 0.00 | 63 | 1021.6 |
| 20260508134849 | 59 | 76 | 2.0 | 6.0 | 0.00 | 0.00 | 0.00 | 65 | 1021.9 |
| 20260508134345 | 60 | 37 | 2.0 | 4.0 | 0.00 | 0.00 | 0.00 | 63 | 1021.7 |
| 20260508133842 | 59 | 89 | 1.0 | 4.0 | 0.00 | 0.00 | 0.00 | 63 | 1021.7 |
| 20260508133340 | 60 | 120 | 0.0 | 3.0 | 0.00 | 0.00 | 0.00 | 62 | 1021.8 |
| 20260508132837 | 59 | 358 | 2.0 | 4.0 | 0.00 | 0.00 | 0.00 | 65 | 1021.7 |
| 20260508132335 | 59 | 88 | 2.0 | 3.0 | 0.00 | 0.00 | 0.00 | 65 | 1021.9 |
| 20260508131831 | 59 | 67 | 2.0 | 3.0 | 0.00 | 0.00 | 0.00 | 65 | 1021.9 |
| 20260508131327 | 59 | 85 | 1.0 | 2.0 | 0.00 | 0.00 | 0.00 | 64 | 1021.7 |
| 20260508130824 | 60 | 99 | 1.0 | 2.0 | 0.00 | 0.00 | 0.00 | 64 | 1021.8 |
| 20260508130321 | 60 | 119 | 0.0 | 1.0 | 0.00 | 0.00 | 0.00 | 63 | 1021.8 |
| 20260508125817 | 60 | 81 | 2.0 | 3.0 | 0.00 | 0.00 | 0.00 | 66 | 1021.8 |
| 20260508125313 | 62 | 135 | 0.0 | 0.0 | 0.00 | 0.00 | 0.00 | 66 | 1021.9 |
| 20260508124811 | 59 | 98 | 0.0 | 1.0 | 0.00 | 0.00 | 0.00 | 66 | 1021.9 |
| 20260508124308 | 61 | 117 | 0.0 | 1.0 | 0.00 | 0.00 | 0.00 | 66 | 1021.8 |
| 20260508123806 | 59 | 103 | 0.0 | 0.0 | 0.00 | 0.00 | 0.00 | 75 | 1022.2 |
| 20260508123304 | 56 | 4 | 0.0 | 0.0 | 0.00 | 0.00 | 0.00 | 77 | 1022.1 |
| 20260508122800 | 55 | 297 | 0.0 | 2.0 | 0.00 | 0.00 | 0.00 | 79 | 1021.9 |
| 20260508122257 | 55 | 326 | 1.0 | 1.0 | 0.00 | 0.00 | 0.00 | 80 | 1021.7 |
| 20260508121754 | 53 | 300 | 1.0 | 3.0 | 0.00 | 0.00 | 0.00 | 83 | 1021.5 |
| 20260508121253 | 52 | 270 | 1.0 | 3.0 | 0.00 | 0.00 | 0.00 | 86 | 1021.7 |
| 20260508120749 | 52 | 293 | 1.0 | 2.0 | 0.00 | 0.00 | 0.00 | 89 | 1021.7 |
| 20260508120248 | 51 | 289 | 2.0 | 2.0 | 0.00 | 0.00 | 0.00 | 90 | 1021.7 |
| 20260508115745 | 50 | 290 | 2.0 | 2.0 | 0.00 | 0.00 | 0.00 | 90 | 1021.6 |
| 20260508115242 | 49 | 282 | 2.0 | 3.0 | 0.00 | 0.00 | 0.00 | 90 | 1021.4 |
| 20260508114733 | 49 | 296 | 2.0 | 2.0 | 0.00 | 0.00 | 0.00 | 91 | 1021.4 |
| 20260508114230 | 48 | 293 | 2.0 | 3.0 | 0.00 | 0.00 | 0.00 | 91 | 1021.1 |
| 20260508113726 | 48 | 290 | 2.0 | 4.0 | 0.00 | 0.00 | 0.00 | 91 | 1020.9 |
| 20260508113225 | 47 | 299 | 2.0 | 3.0 | 0.00 | 0.00 | 0.00 | 91 | 1020.9 |
| 20260508112721 | 47 | 304 | 2.0 | 3.0 | 0.00 | 0.00 | 0.00 | 91 | 1020.9 |
| 20260508112218 | 47 | 297 | 3.0 | 3.0 | 0.00 | 0.00 | 0.00 | 92 | 1020.8 |
| 20260508111715 | 46 | 294 | 2.0 | 3.0 | 0.00 | 0.00 | 0.00 | 92 | 1020.9 |